Wind_Speed
1 6 6 5 6 10 4 4 4 6 9 11 8 8 14 12 12 11 14 11 11 13 13 17 16 14 10 14 14 15 12 19 23 12 8 9 20 23 22 23 23 24 20 18
5 3 8 8 13 13 7 5 8 10 0 7 16 16 15 13 14 15 15 14 14 13 14 15 14 16 16 14 14 16 11 7 15 23 23 16 11 12 21 23 19 23 21 22
1 5 6 6 5 6 2 5 6 5 6 19 11 15 17 16 15 18 19 18 17 18 17 15 14 13 12 12 10 9 8 8 10 14 16 19 20 15 17 20 17 16 18 20
2 3 2 5 5 4 9 5 3 7 16 16 18 17 18 17 18 20 20 19 19 18 18 18 18 18 17 15 13 13 15 14 12 11 14 20 20 19 21 22 21 23 21 17
3 1 3 3 2 4 3 4 8 13 13 16 21 19 13 17 20 22 23 20 19 16 16 16 16 15 15 14 12 10 8 7 7 9 13 14 11 17 15 20 18 19 24 25
2 3 4 4 6 16 5 3 14 24 23 22 25 5 5 25 23 21 19 18 18 15 13 11 12 10 7 8 6 5 5 4 4 4 6 10 14 11 12 12 18 17 22 23
1 2 4 5 8 11 6 4 14 25 33 31 16 8 32 31 26 20 18 18 16 13 10 8 7 7 6 4 3 3 3 5 6 6 7 8 9 10 10 13 13 14 15 13
2 3 3 4 6 1 3 2 9 23 30 33 16 21 38 34 30 25 21 18 14 12 9 7 6 7 7 7 8 8 9 10 10 10 11 11 11 11 12 12 13 14 15 13
5 5 6 1 5 6 2 3 11 25 27 32 24 39 39 35 30 25 20 18 14 10 9 7 5 5 6 7 7 7 8 8 7 8 9 9 10 11 12 13 13 14 16 17
4 3 5 6 7 6 6 5 9 21 22 22 27 36 37 32 28 24 19 16 12 8 6 6 8 8 7 7 6 6 7 8 8 7 7 8 8 8 8 10 12 13 15 18
2 4 2 9 8 9 8 9 11 14 17 22 28 36 33 30 26 22 19 15 11 6 6 6 5 5 5 6 6 5 5 5 6 6 6 6 7 7 7 9 11 12 13 16
5 9 8 7 14 12 13 15 15 18 22 25 29 32 31 28 24 21 19 15 10 7 5 3 3 4 5 4 4 4 4 4 5 5 5 6 7 6 7 9 10 11 13 16
3 10 9 4 6 5 14 17 22 19 20 24 28 25 27 28 26 23 20 16 11 7 7 4 4 5 3 3 3 3 3 3 3 3 4 5 6 7 7 6 9 10 13 14
7 7 5 4 4 5 9 12 15 23 25 26 26 31 30 31 30 27 23 17 10 9 8 6 5 4 5 3 2 3 4 5 5 5 6 8 9 11 13 15 15 14 14 17
12 11 9 7 6 9 13 15 15 17 26 31 28 31 35 35 33 29 23 18 13 11 12 10 7 4 5 2 1 2 3 4 6 7 9 11 13 14 16 18 20 22 23 22
10 7 5 9 14 12 13 15 18 19 25 31 32 36 36 34 30 27 24 23 21 19 17 12 8 5 5 4 2 2 3 5 6 7 10 12 15 18 20 23 25 27 29 31
8 7 8 12 12 10 11 11 11 13 15 24 33 38 34 31 31 28 27 27 25 22 17 13 8 8 6 7 5 5 5 6 7 9 12 14 17 20 23 26 29 31 32 33
10 8 8 7 6 7 9 10 12 13 15 19 19 25 27 37 33 33 32 32 31 29 26 19 15 12 9 8 6 4 4 5 7 8 11 14 17 20 23 26 29 32 33 33
10 7 8 7 7 9 12 13 14 14 16 18 23 26 28 22 29 34 37 39 38 36 30 26 22 19 14 10 8 5 5 6 8 9 11 15 18 21 24 25 29 32 34 36
9 8 6 6 9 10 11 10 9 12 15 15 23 21 21 19 10 19 27 38 39 37 36 31 28 24 17 13 9 6 5 5 8 11 12 14 17 20 24 25 27 30 32 33
5 4 4 4 4 7 9 9 9 9 9 13 18 18 18 23 23 23 18 24 27 35 45 32 31 28 18 15 12 8 6 7 10 12 13 14 16 18 21 25 28 29 30 31
5 2 1 3 4 7 7 9 10 13 16 17 17 18 18 17 19 25 26 33 22 28 36 39 31 29 17 15 13 9 9 10 11 11 12 13 16 18 21 24 29 30 31 32
2 2 3 4 5 7 10 14 17 20 21 21 21 21 21 22 21 19 20 20 24 21 25 34 27 28 22 18 14 11 13 14 13 12 13 16 18 19 22 25 28 33 31 31
1 2 4 7 9 12 16 12 12 14 18 20 23 26 27 22 23 20 17 16 17 24 28 28 27 29 19 14 14 11 13 14 13 12 14 16 18 21 23 25 28 31 30 28
3 5 5 8 9 7 11 12 16 26 27 15 9 9 15 23 23 17 12 12 12 14 18 18 17 18 16 14 12 13 13 13 12 12 15 17 17 20 23 25 27 30 30 26
8 6 4 7 9 9 10 14 17 22 26 16 15 10 5 8 16 13 8 7 9 17 17 16 17 16 16 15 13 13 13 11 12 13 16 17 18 19 22 24 27 28 28 26
5 5 10 10 10 7 7 9 11 13 17 20 20 21 13 14 10 11 14 16 18 15 12 12 13 13 14 16 16 16 16 15 16 17 18 19 20 19 21 23 25 25 25 26
Wind_Direction
176 128 62 34 15 350 227 190 141 188 176 208 172 155 157 141 132 127 120 133 142 138 164 177 178 166 187 179 182 204 210 239 226 219 239 257 257 253 243 244 247 246 249 257
21 246 68 8 355 353 6 84 79 108 256 140 160 155 152 146 130 117 116 119 120 132 141 141 157 178 183 186 182 196 220 227 210 234 257 256 300 276 258 248 249 252 252 255
329 353 113 340 319 337 336 39 119 170 197 153 148 151 158 156 146 134 126 120 118 114 116 124 140 150 156 168 183 196 206 213 225 233 240 243 271 266 257 256 267 271 252 256
171 43 137 241 207 184 105 44 30 97 134 146 150 155 158 162 155 142 130 126 127 126 123 120 118 124 136 142 150 169 182 192 200 208 221 235 259 253 239 254 268 267 259 276
119 109 296 99 281 265 115 357 122 121 123 127 139 140 149 170 157 145 140 141 137 132 129 131 136 132 130 128 133 142 143 163 185 211 223 232 247 238 253 244 250 264 254 274
113 122 194 244 310 330 319 236 168 148 148 148 146 150 205 166 160 154 153 152 146 143 139 135 130 149 155 137 133 132 138 159 174 207 236 237 240 254 255 265 271 264 259 273
124 149 296 275 297 335 168 253 177 173 162 164 173 200 167 170 168 165 160 158 161 163 169 169 173 195 225 241 250 257 257 256 257 254 256 260 265 271 266 263 261 275 281 270
89 92 263 330 330 334 241 354 182 187 178 171 174 166 163 167 167 170 170 174 185 195 196 201 220 241 243 246 256 270 276 280 278 272 267 266 264 263 270 271 266 267 281 279
160 213 243 17 123 124 59 21 192 181 179 179 173 169 171 172 174 177 184 190 197 206 206 212 238 260 260 260 264 271 279 279 270 269 275 273 266 264 264 264 263 261 263 268
78 254 205 166 149 151 153 123 138 185 180 191 177 177 175 175 175 179 187 194 199 207 224 257 271 282 288 288 288 285 280 276 275 267 263 274 283 283 277 275 275 277 278 279
270 282 260 211 205 185 178 165 156 170 189 198 194 182 182 182 185 190 191 192 195 212 243 245 254 282 293 301 308 311 298 281 274 271 270 268 267 271 281 292 295 296 296 296
211 209 205 209 205 205 191 188 187 181 182 189 192 191 193 196 198 196 194 196 208 237 235 237 257 273 287 286 295 308 310 294 279 274 273 275 280 283 289 285 288 294 297 298
218 202 190 185 212 229 230 218 203 213 215 206 207 213 214 212 204 205 201 203 215 237 224 257 283 278 247 225 314 323 311 304 293 296 301 306 309 309 304 312 311 308 307 307
191 175 199 245 275 260 253 262 255 237 236 229 224 212 213 206 200 202 204 209 209 216 219 246 275 244 209 206 355 10 9 4 359 359 1 358 353 348 343 336 331 328 325 321
205 211 240 263 255 264 267 270 268 266 239 221 226 221 205 202 204 207 212 209 211 216 221 236 237 232 224 228 337 24 27 17 15 13 10 7 1 354 350 346 342 337 333 328
195 211 244 290 301 288 268 267 272 276 260 238 233 218 208 209 211 209 213 210 211 219 225 234 227 229 239 232 329 319 340 341 345 352 355 353 353 354 353 351 348 344 340 335
195 235 285 295 279 269 276 282 292 293 276 243 220 211 207 215 212 213 217 220 228 232 225 235 230 222 240 229 261 303 310 327 332 339 345 349 351 353 354 352 349 347 343 337
234 263 280 275 279 272 282 290 289 278 273 256 248 233 219 219 227 222 224 226 226 227 226 231 231 232 232 228 241 278 287 323 333 334 348 350 351 353 352 351 350 345 341 336
222 257 263 263 276 279 282 282 285 286 285 272 237 227 216 233 232 232 227 223 226 225 229 231 229 231 229 221 231 254 275 299 329 332 335 342 348 351 350 350 349 348 344 338
224 232 225 257 279 286 278 287 302 291 285 275 263 247 236 226 247 232 234 234 232 235 232 229 225 227 226 219 228 244 273 305 325 327 320 324 335 341 346 344 343 345 344 339
176 199 229 242 275 276 274 281 271 278 297 281 263 255 249 226 235 250 250 242 244 243 231 230 228 231 221 219 228 238 271 299 309 316 312 313 319 325 330 340 339 339 340 340
131 135 333 302 291 276 276 275 271 274 274 269 264 265 263 257 255 247 257 246 245 244 232 235 228 219 217 213 226 241 260 278 293 301 309 320 315 318 321 327 337 336 337 339
180 232 308 311 301 304 303 301 297 293 287 277 269 263 257 255 254 254 258 256 247 239 242 239 224 211 207 214 232 255 268 276 287 293 308 310 316 320 323 326 330 335 331 334
307 259 292 307 308 305 313 327 342 345 322 293 277 263 252 244 243 249 260 269 258 244 229 231 228 212 209 194 221 259 275 280 287 293 313 311 315 316 316 317 323 328 328 330
270 274 302 307 312 90 81 47 19 10 2 342 288 292 265 236 232 241 263 279 257 223 217 213 209 193 204 214 232 257 278 284 288 295 305 311 314 313 313 313 319 323 328 327
250 262 297 114 113 99 73 39 23 16 22 37 30 0 302 214 212 229 243 207 193 195 174 194 201 207 217 225 238 258 267 286 286 295 299 308 316 318 320 316 315 320 330 328
235 156 135 121 110 91 46 19 7 11 41 63 51 46 56 99 98 132 132 133 143 159 184 191 207 217 228 235 239 259 264 279 286 288 299 300 315 322 322 316 314 320 329 333
Height
1506 1507 1507 1509 1508 1505 1505 1501 1506 1514 1521 1518 1523 1528 1530 1533 1536 1538 1536 1539 1540 1541 1542 1544 1548 1550 1554 1555 1559 1562 1565 1567 1568 1572 1575 1578 1580 1581 1582 1583 1586 1588 1590 1592
1513 1500 1508 1515 1507 1507 1502 1507 1512 1518 1525 1519 1525 1528 1531 1533 1535 1536 1538 1542 1542 1543 1544 1545 1548 1550 1553 1556 1558 1562 1563 1565 1565 1568 1570 1576 1578 1578 1579 1581 1583 1584 1586 1587
1520 1517 1510 1528 1515 1514 1509 1508 1513 1516 1512 1516 1525 1528 1530 1534 1536 1537 1540 1542 1543 1545 1546 1547 1548 1551 1553 1555 1558 1560 1561 1562 1564 1567 1568 1572 1574 1575 1576 1578 1579 1581 1582 1584
1526 1520 1540 1514 1504 1510 1513 1516 1512 1510 1513 1521 1524 1529 1532 1536 1538 1540 1541 1544 1546 1547 1547 1549 1550 1552 1554 1555 1557 1560 1560 1561 1564 1565 1566 1569 1570 1571 1570 1572 1576 1576 1578 1579
1535 1537 1526 1512 1510 1508 1508 1520 1515 1516 1521 1524 1528 1533 1537 1539 1542 1542 1542 1546 1549 1551 1551 1552 1554 1556 1557 1558 1559 1560 1560 1561 1562 1563 1565 1565 1566 1566 1567 1570 1571 1571 1573 1574
1537 1533 1532 1518 1509 1507 1505 1522 1511 1511 1518 1526 1530 1539 1536 1539 1542 1544 1546 1548 1550 1553 1554 1556 1557 1559 1560 1559 1559 1559 1561 1562 1563 1563 1565 1565 1565 1566 1565 1565 1566 1566 1568 1568
1535 1537 1528 1515 1511 1507 1518 1525 1510 1512 1512 1519 1521 1523 1529 1536 1541 1545 1547 1550 1553 1555 1556 1557 1558 1559 1559 1560 1560 1560 1561 1562 1563 1563 1563 1562 1561 1561 1562 1562 1563 1564 1565 1567
1539 1541 1537 1513 1511 1513 1514 1510 1512 1515 1514 1516 1522 1525 1530 1535 1538 1544 1547 1550 1553 1554 1555 1556 1557 1558 1559 1560 1560 1560 1560 1560 1560 1559 1560 1561 1560 1559 1558 1559 1560 1560 1561 1562
1529 1532 1516 1513 1512 1512 1512 1512 1512 1514 1518 1520 1524 1527 1531 1535 1538 1543 1547 1549 1551 1553 1554 1555 1556 1557 1558 1557 1557 1557 1558 1559 1559 1558 1557 1558 1557 1557 1557 1556 1556 1557 1557 1558
1522 1517 1514 1513 1513 1513 1513 1513 1513 1516 1521 1526 1529 1531 1533 1536 1539 1542 1546 1547 1549 1551 1552 1553 1554 1555 1554 1553 1554 1554 1555 1556 1555 1555 1556 1555 1555 1554 1555 1554 1553 1553 1553 1552
1520 1516 1515 1515 1515 1514 1515 1515 1516 1519 1520 1523 1528 1532 1535 1537 1540 1544 1546 1548 1549 1550 1552 1552 1553 1553 1553 1552 1552 1552 1552 1553 1553 1552 1552 1552 1552 1552 1553 1552 1551 1550 1550 1549
1520 1510 1512 1513 1514 1515 1515 1516 1518 1519 1522 1525 1527 1529 1532 1536 1539 1541 1544 1547 1549 1550 1550 1551 1551 1551 1552 1551 1551 1550 1550 1551 1551 1550 1550 1549 1549 1549 1548 1548 1548 1547 1547 1546
1506 1507 1510 1512 1514 1514 1515 1517 1517 1517 1519 1522 1526 1528 1531 1533 1535 1538 1542 1545 1548 1549 1550 1550 1549 1549 1549 1550 1549 1549 1549 1549 1549 1549 1548 1548 1546 1544 1544 1544 1543 1543 1542 1541
1504 1506 1509 1510 1512 1513 1514 1515 1515 1516 1516 1518 1520 1522 1526 1529 1533 1536 1538 1541 1544 1546 1547 1548 1547 1547 1547 1548 1548 1547 1547 1547 1547 1546 1544 1543 1541 1540 1538 1537 1537 1537 1536 1534
1502 1503 1505 1507 1509 1510 1510 1511 1511 1511 1513 1513 1515 1517 1520 1524 1528 1530 1534 1537 1539 1541 1543 1544 1545 1545 1545 1546 1546 1546 1546 1546 1545 1544 1542 1540 1539 1538 1536 1534 1532 1530 1528 1528
1500 1502 1503 1504 1504 1505 1505 1506 1506 1506 1507 1509 1509 1511 1513 1517 1521 1525 1528 1531 1533 1535 1538 1540 1541 1543 1543 1543 1544 1544 1544 1543 1543 1541 1540 1538 1536 1535 1532 1529 1527 1524 1521 1518
1498 1500 1501 1501 1501 1501 1503 1503 1502 1501 1501 1502 1504 1507 1509 1513 1515 1519 1522 1525 1528 1531 1534 1535 1537 1539 1540 1541 1542 1541 1541 1540 1540 1538 1537 1535 1533 1530 1527 1524 1522 1519 1517 1514
1496 1497 1498 1499 1499 1499 1500 1499 1499 1499 1500 1500 1502 1505 1504 1509 1510 1512 1515 1518 1522 1526 1528 1531 1533 1535 1536 1537 1538 1539 1539 1537 1537 1536 1534 1532 1530 1527 1524 1522 1519 1516 1513 1510
1494 1496 1497 1498 1498 1498 1498 1497 1496 1496 1496 1496 1496 1497 1497 1502 1504 1506 1509 1510 1513 1517 1521 1524 1527 1529 1531 1533 1535 1536 1536 1535 1534 1532 1531 1529 1527 1524 1522 1519 1516 1513 1509 1504
1493 1494 1495 1496 1496 1496 1495 1495 1494 1493 1493 1493 1492 1492 1490 1493 1497 1499 1502 1505 1507 1512 1515 1519 1521 1523 1526 1529 1531 1532 1532 1532 1531 1530 1529 1527 1525 1522 1520 1517 1514 1510 1505 1501
1492 1494 1494 1495 1493 1493 1492 1492 1491 1491 1490 1490 1489 1487 1486 1485 1488 1492 1495 1497 1500 1502 1507 1512 1516 1520 1521 1524 1526 1528 1529 1529 1528 1528 1526 1525 1523 1521 1518 1515 1511 1506 1501 1496
1492 1493 1493 1493 1492 1492 1491 1490 1489 1488 1487 1486 1485 1484 1484 1484 1486 1487 1488 1490 1491 1494 1499 1500 1506 1512 1517 1519 1521 1523 1525 1525 1524 1523 1522 1521 1519 1517 1514 1510 1506 1501 1496 1490
1492 1493 1493 1492 1491 1490 1489 1488 1486 1484 1482 1481 1479 1478 1478 1479 1481 1482 1483 1485 1484 1487 1488 1493 1498 1503 1509 1512 1516 1519 1519 1519 1519 1518 1517 1516 1514 1511 1507 1504 1500 1495 1490 1486
1492 1492 1492 1491 1490 1489 1487 1485 1483 1480 1476 1471 1469 1469 1470 1472 1474 1476 1478 1478 1479 1481 1484 1489 1493 1497 1501 1506 1510 1513 1514 1514 1513 1512 1511 1510 1508 1506 1503 1499 1496 1492 1487 1481
1491 1491 1491 1490 1489 1487 1487 1486 1483 1477 1469 1463 1462 1462 1461 1463 1468 1472 1473 1474 1475 1477 1481 1487 1493 1497 1500 1504 1506 1508 1510 1509 1508 1507 1507 1505 1503 1501 1498 1495 1491 1487 1482 1477
1490 1491 1490 1489 1489 1489 1488 1486 1483 1480 1474 1468 1465 1461 1458 1459 1464 1468 1470 1470 1473 1477 1484 1487 1492 1495 1499 1501 1503 1504 1505 1504 1504 1502 1502 1501 1499 1496 1493 1490 1487 1483 1477 1472
1489 1490 1490 1491 1491 1490 1489 1487 1485 1484 1481 1475 1473 1469 1466 1466 1468 1468 1470 1473 1476 1480 1484 1488 1491 1494 1495 1497 1499 1500 1500 1499 1498 1497 1497 1495 1493 1490 1487 1484 1481 1477 1472 1467